Location: Balagbag Mahabang Kahoy
(14.1562°N, 120.9200°E)
Time: 05:11:42
(UTC+00:00)

ATLAS 2AS CENTAUR RB - Pass Details

Date: 16 January 2026
Orbit: 301 x 22241 km, 12.7° (Epoch: 14 February)

Event Time Altitude Azimuth Distance (km) Brightness Sun altitude
Rises 12:29:45 0° 263° (W) 11,568 8.9 -38.2°
Reaches altitude 10° 12:43:09 10° 262° (W) 6,946 7.5 -41.3°
Enters shadow 12:55:15 42° 253° (WSW) 1,806 4.0 -44.2°
